(132954) = 2001 HP57 = 2002 TT83

Discovered at Haleakala on 2002-10-02 by NEAT.

Orbit

Orbit type: Main Belt

Note: WebGL enabled browser required.

epoch2023-09-13.0
epoch JD2460200.5
perihelion date2019-06-26.17080
perihelion JD2458660.67080
argument of perihelion (°)121.56656
ascending node (°)158.03110
inclination (°)15.36526
eccentricity0.1326654
perihelion distance (AU)2.3238553
Tisserand w.r.t. Jupiter3.3
ΔV w.r.t. Earth (km/sec)10.7
semimajor axis (AU)2.6793065
mean anomaly (°)346.05313
mean daily motion (°/day)0.22473480
aphelion distance (AU)3.035
period (years)4.39
P-vector [x]0.17812177
P-vector [y]-0.96853098
P-vector [z]-0.17384008
Q-vector [x]0.97900283
Q-vector [y]0.19222508
Q-vector [z]-0.06784530
absolute magnitude15.85
phase slope0.15
uncertainty0
referenceMPEC 2024-A34
observations used598
oppositions17
arc length (days)9051
first opposition used1998
last opposition used2023
residual rms (arc-secs)0.71
perturbers coarse indicatorM-v
perturbers precise indicator003Ek
first observation date used1998-09-25.0
last observation date used2023-07-07.0
computer nameMPCLINUX
JD of orbit computation2456937.512963
perihelion JD uncertainty (days)1.0677E-04
argument of perihelion uncertainty (°)3.2793E-05
ascending node uncertainty (°)2.1717E-05
inclination uncertainty (°)5.4893E-06
eccentricity uncertainty 4.2331E-08
perihelion distance uncertainty (AU)1.2011E-07
Minimum Orbit Intersection Distances (in AU)
for orbit epoch: 2460200.5, reference: E2024-A34
Mercury1.89283
Venus1.62791
Earth1.34618
Mars0.9951
Jupiter2.29428
Saturn6.13191
Uranus15.5905
Neptune27.0485

Observations

605 total observations over interval: 1998 09 25.412581 – 2023 07 07.230449
These data are available for download (format description).

Date (UT) J2000 RA J2000 Dec Magn Location Ref
1998 09 25.412581 03 09 17.971 -00 17 58.26 20.37 V 645 – Apache Point-Sloan Digital Sky Survey MPS 80135
1998 09 25.416053 03 09 17.915 -00 18 00.05 21.30   645 – Apache Point-Sloan Digital Sky Survey MPS 80135
2001 04 25.20690 14 37 01.49 +07 09 43.9 18.2 R 699 – Lowell Observatory-LONEOS MPS 30382
2001 04 25.23660 14 36 59.99 +07 09 58.1   699 – Lowell Observatory-LONEOS MPS 30382
2001 04 25.26640 14 36 58.60 +07 10 15.2   699 – Lowell Observatory-LONEOS MPS 30382
2001 04 25.29627 14 36 57.21 +07 10 28.6   699 – Lowell Observatory-LONEOS MPS 30382
2001 04 26.27284 14 36 11.98 +07 18 38.1 18.4   704 – Lincoln Laboratory ETS, New Mexico MPS 30382
2001 04 26.28602 14 36 11.46 +07 18 44.3 18.7   704 – Lincoln Laboratory ETS, New Mexico MPS 30382
2001 04 26.29923 14 36 10.82 +07 18 51.2 18.9   704 – Lincoln Laboratory ETS, New Mexico MPS 30382
2001 04 26.31244 14 36 10.17 +07 18 56.9 19.0   704 – Lincoln Laboratory ETS, New Mexico MPS 30382
2001 04 26.32566 14 36 09.51 +07 19 04.5 18.5   704 – Lincoln Laboratory ETS, New Mexico MPS 30382
2001 05 22.24097 14 17 27.28 +09 23 58.5 19.3 R 699 – Lowell Observatory-LONEOS MPS 63165
2001 05 22.26827 14 17 26.22 +09 23 59.2   699 – Lowell Observatory-LONEOS MPS 63165
2001 05 22.29565 14 17 25.20 +09 24 01.3   699 – Lowell Observatory-LONEOS MPS 63165
2001 05 22.32312 14 17 24.21 +09 24 02.9   699 – Lowell Observatory-LONEOS MPS 63165
2002 08 31.34133 00 20 11.74 -04 45 00.2 19.0 R 699 – Lowell Observatory-LONEOS MPS 63993
2002 08 31.35891 00 20 10.99 -04 45 11.4   699 – Lowell Observatory-LONEOS MPS 63993
2002 08 31.37646 00 20 10.50 -04 45 21.6   699 – Lowell Observatory-LONEOS MPS 63993
2002 08 31.39400 00 20 09.83 -04 45 34.8   699 – Lowell Observatory-LONEOS MPS 63993
2002 09 05.27469 00 17 28.84 -05 40 56.0 19.1   704 – Lincoln Laboratory ETS, New Mexico MPS 63993
2002 09 05.28903 00 17 28.23 -05 41 07.1 19.3   704 – Lincoln Laboratory ETS, New Mexico MPS 63993
2002 09 05.31932 00 17 27.08 -05 41 27.0 19.5   704 – Lincoln Laboratory ETS, New Mexico MPS 63993
2002 10 02.42869 23 58 23.73 -10 37 39.9 20.3   608 – Haleakala-AMOS MPS 63993
2002 10 02.43916 23 58 23.29 -10 37 45.2 20.1   608 – Haleakala-AMOS MPS 63993
2002 10 02.44972 23 58 22.80 -10 37 51.4 20.1   608 – Haleakala-AMOS MPS 63993
2002 10 04.19363 23 57 11.54 -10 53 32.0 19.2   704 – Lincoln Laboratory ETS, New Mexico MPS 63993
2002 10 04.22366 23 57 10.20 -10 53 48.0 19.1   704 – Lincoln Laboratory ETS, New Mexico MPS 63993
2002 10 04.23875 23 57 09.59 -10 53 56.9 19.6   704 – Lincoln Laboratory ETS, New Mexico MPS 63993
2002 10 05.25214 23 56 28.93 -11 02 43.6 19.1   704 – Lincoln Laboratory ETS, New Mexico MPS 63993
2002 10 05.26688 23 56 28.24 -11 02 51.3 19.6   704 – Lincoln Laboratory ETS, New Mexico MPS 63993
2002 10 05.28179 23 56 27.68 -11 02 59.0 19.5   704 – Lincoln Laboratory ETS, New Mexico MPS 63993
2002 10 05.29661 23 56 26.98 -11 03 06.5 19.5   704 – Lincoln Laboratory ETS, New Mexico MPS 63993
2002 10 10.21503 23 53 21.45 -11 42 23.2 18.9 R 699 – Lowell Observatory-LONEOS MPS 63993
2002 10 10.23348 23 53 20.78 -11 42 31.2   699 – Lowell Observatory-LONEOS MPS 63993
2002 10 10.25196 23 53 19.98 -11 42 39.4   699 – Lowell Observatory-LONEOS MPS 63993
2002 10 10.27041 23 53 19.33 -11 42 48.2   699 – Lowell Observatory-LONEOS MPS 63993
2005 03 03.33396 11 45 54.10 +06 53 11.8 19.3 R 703 – Catalina Sky Survey MPS 127167
2005 03 03.34424 11 45 53.67 +06 53 16.4 18.7 R 703 – Catalina Sky Survey MPS 127167
2005 03 03.35452 11 45 53.18 +06 53 24.6 19.4 R 703 – Catalina Sky Survey MPS 127167
2005 03 03.36485 11 45 52.76 +06 53 30.5 19.2 R 703 – Catalina Sky Survey MPS 127167
2005 03 08.24269 11 42 22.28 +07 45 59.5 18.8 R 699 – Lowell Observatory-LONEOS MPS 127922
2005 03 08.26212 11 42 21.46 +07 46 12.9   699 – Lowell Observatory-LONEOS MPS 127922
2005 03 08.28160 11 42 20.50 +07 46 25.2   699 – Lowell Observatory-LONEOS MPS 127923
2005 03 08.30106 11 42 19.58 +07 46 37.2   699 – Lowell Observatory-LONEOS MPS 127923
2005 03 09.24741 11 41 37.47 +07 56 51.1 18.6 R 699 – Lowell Observatory-LONEOS MPS 127923
2005 03 09.26686 11 41 36.47 +07 57 04.2   699 – Lowell Observatory-LONEOS MPS 127923
2005 03 09.28630 11 41 35.56 +07 57 16.6   699 – Lowell Observatory-LONEOS MPS 127923
2005 03 09.30575 11 41 34.62 +07 57 28.6   699 – Lowell Observatory-LONEOS MPS 127923
2005 03 09.34535 11 41 32.78 +07 57 54.5 18.8   704 – Lincoln Laboratory ETS, New Mexico MPS 127923
2005 03 09.35690 11 41 32.23 +07 58 02.2 19.3   704 – Lincoln Laboratory ETS, New Mexico MPS 127923
2005 03 09.36908 11 41 31.65 +07 58 10.7 19.1   704 – Lincoln Laboratory ETS, New Mexico MPS 127923
2005 03 09.38068 11 41 31.11 +07 58 17.1 19.2   704 – Lincoln Laboratory ETS, New Mexico MPS 127923
2005 03 09.39227 11 41 30.60 +07 58 26.1 19.4   704 – Lincoln Laboratory ETS, New Mexico MPS 127923
2005 03 12.28296 11 39 19.29 +08 29 34.0 19.5   704 – Lincoln Laboratory ETS, New Mexico MPS 129042
2005 03 12.29434 11 39 18.74 +08 29 41.0 19.4   704 – Lincoln Laboratory ETS, New Mexico MPS 129042
2005 03 12.32858 11 39 17.06 +08 30 03.5 19.7   704 – Lincoln Laboratory ETS, New Mexico MPS 129042
2005 03 16.28769 11 36 14.48 +09 12 07.0 19.3   704 – Lincoln Laboratory ETS, New Mexico MPS 129042
2005 03 16.29951 11 36 13.87 +09 12 14.3 19.4   704 – Lincoln Laboratory ETS, New Mexico MPS 129042
2005 03 16.31118 11 36 13.26 +09 12 21.9 19.5   704 – Lincoln Laboratory ETS, New Mexico MPS 129042
2005 03 16.32253 11 36 12.79 +09 12 29.2 19.4   704 – Lincoln Laboratory ETS, New Mexico MPS 129042
2005 03 16.33375 11 36 12.23 +09 12 36.3 19.5   704 – Lincoln Laboratory ETS, New Mexico MPS 129042
2005 04 16.13558 11 16 57.92 +13 24 53.6 20.0 V 691 – Steward Observatory, Kitt Peak-Spacewatch MPS 132579
2005 04 16.15206 11 16 57.55 +13 24 58.8 19.9 V 691 – Steward Observatory, Kitt Peak-Spacewatch MPS 132579
2005 04 16.16846 11 16 57.15 +13 25 03.8 19.9 V 691 – Steward Observatory, Kitt Peak-Spacewatch MPS 132579
2006 05 27.36810 20 46 38.84 -01 46 44.5 20.3 V 691 – Steward Observatory, Kitt Peak-Spacewatch MPS 172801
2006 05 27.38885 20 46 39.44 -01 46 39.9 20.0 V 691 – Steward Observatory, Kitt Peak-Spacewatch MPS 172801
2006 05 27.40969 20 46 40.02 -01 46 35.0 19.9 V 691 – Steward Observatory, Kitt Peak-Spacewatch MPS 172801
2006 06 20.34464 20 51 18.12 -01 02 28.2 19.3 R 644 – Palomar Mountain/NEAT MPS 173877
2006 06 20.36618 20 51 17.94 -01 02 29.1 19.0 R 644 – Palomar Mountain/NEAT MPS 173877
2006 06 20.39161 20 51 17.70 -01 02 29.9 19.4 R 644 – Palomar Mountain/NEAT MPS 173877
2006 07 23.22863 20 35 08.42 -03 37 10.7 18.1 R 644 – Palomar Mountain/NEAT MPS 175399
2006 07 23.24927 20 35 07.47 -03 37 21.6 18.4 R 644 – Palomar Mountain/NEAT MPS 175399
2006 07 23.27144 20 35 06.40 -03 37 33.2 18.4 R 644 – Palomar Mountain/NEAT MPS 175399
2006 08 18.21269 20 16 27.89 -08 10 18.7 18.3 R 644 – Palomar Mountain/NEAT MPS 178148
2006 08 18.21388 20 16 27.85 -08 10 19.4 18.4 R 644 – Palomar Mountain/NEAT MPS 178148
2006 08 18.22345 20 16 27.51 -08 10 25.9 18.2 R 644 – Palomar Mountain/NEAT MPS 178148
2006 08 18.22464 20 16 27.46 -08 10 26.7 18.3 R 644 – Palomar Mountain/NEAT MPS 178148
2006 08 18.23421 20 16 27.11 -08 10 33.2 18.2 R 644 – Palomar Mountain/NEAT MPS 178148
2006 08 18.23541 20 16 27.07 -08 10 34.1 18.3 R 644 – Palomar Mountain/NEAT MPS 178148
2009 01 26.32857 09 23 12.39 +06 08 12.6 19.9   704 – Lincoln Laboratory ETS, New Mexico MPS 275710
2009 01 26.34093 09 23 11.76 +06 08 16.5 20.6   704 – Lincoln Laboratory ETS, New Mexico MPS 275710
2009 01 26.35325 09 23 11.20 +06 08 20.9 20.4   704 – Lincoln Laboratory ETS, New Mexico MPS 275710
2009 01 26.36547 09 23 10.65 +06 08 27.1 20.5   704 – Lincoln Laboratory ETS, New Mexico MPS 275710
2009 01 26.37773 09 23 10.03 +06 08 31.9 20.4   704 – Lincoln Laboratory ETS, New Mexico MPS 275710
2009 02 20.22581 09 02 45.02 +09 29 26.7 19.8 V 703 – Catalina Sky Survey MPS 277360
2009 02 20.23185 09 02 44.66 +09 29 29.4 20.6 V 703 – Catalina Sky Survey MPS 277360
2009 02 20.23786 09 02 44.48 +09 29 32.4 19.6 V 703 – Catalina Sky Survey MPS 277360
2009 02 20.24384 09 02 44.16 +09 29 35.0 19.7 V 703 – Catalina Sky Survey MPS 277360
